Regional Weather Roundup
Issued by NWS

Home | Current Version | Previous Version | Graphics & Text | Print | Product List | Glossary On
Versions: 1 2 3 4 5 6 7 8 9 10 11 12 13 14 15 16 17 18 19 20 21 22 23 24 25 26 27 28 29 30 31 32 33 34 35 36 37 38 39 40 41 42 43 44 45 46 47 48 49 50
000
ASUS43 KOAX 280010
RWRNE

WEATHER ROUNDUP FOR NEBRASKA
NATIONAL WEATHER SERVICE OMAHA NE
700 PM CDT FRI MAR 27 2015

NOTES: SATELLITE DATA IS BEING USED TO AUGMENT CLOUD COVER ABOVE
       12000 FEET.
       "FAIR" INDICATES FEW OR NO CLOUDS BELOW 12,000 FEET WITH NO
       SIGNIFICANT WEATHER AND/OR OBSTRUCTIONS TO VISIBILITY.

  * THESE STATIONS DO NOT REPORT WEATHER SUCH AS RAIN...SNOW OR FOG.

NEZ001>004-019>022-054>056-280100-
NEBRASKA PANHANDLE

CITY           SKY/WX    TMP DP  RH WIND       PRES   REMARKS
SCOTTSBLUFF    MOSUNNY   67  32  27 N13       29.97S
6HR MIN TEMP:  63; 6HR MAX TEMP:  73;

ALLIANCE       MOSUNNY   65  32  29 NW22      29.96S
6HR MIN TEMP:  63; 6HR MAX TEMP:  70;

CHADRON        PTSUNNY   69  34  27 NW18G30   29.93S
6HR MIN TEMP:  62; 6HR MAX TEMP:  71;

KIMBALL        PTSUNNY   67  29  24 NW16      30.01S
SIDNEY         MOSUNNY   68  31  25 N17G28    30.00S
6HR MIN TEMP:  60; 6HR MAX TEMP:  70;

$$

NEZ057>060-069>072-079>082-280100-
SOUTHWEST NEBRASKA

CITY           SKY/WX    TMP DP  RH WIND       PRES   REMARKS
NORTH PLATTE   CLOUDY    63  35  35 NE15      29.93R
6HR MIN TEMP:  43; 6HR MAX TEMP:  68;

IMPERIAL         N/A     69  35  28 NW13      29.95F
6HR MIN TEMP:  53; 6HR MAX TEMP:  71;

LEXINGTON      PTSUNNY   55  36  48 S10       29.96F
MCCOOK         PTSUNNY   67  37  33 SW9       29.92F
6HR MIN TEMP:  44; 6HR MAX TEMP:  69;

OGALLALA       MOSUNNY   68  35  28 N20       29.95R
$$

NEZ005>010-023>029-035>040-094-280100-
NORTH CENTRAL NEBRASKA

CITY           SKY/WX    TMP DP  RH WIND       PRES   REMARKS
VALENTINE      CLOUDY    62  34  35 N15       29.91S
6HR MIN TEMP:  47; 6HR MAX TEMP:  63;

AINSWORTH      MOSUNNY   60  35  38 NW15      29.90S
BROKEN BOW     CLOUDY    52  36  54 S3        29.95S
6HR MIN TEMP:  40; 6HR MAX TEMP:  52; 6HR PCP: TRACE;

O`NEILL        MOCLDY    39  32  75 SE12      29.97S WCI  32
ORD            CLOUDY    47  28  47 S9        29.96S
6HR MIN TEMP:  34; 6HR MAX TEMP:  49; 6HR PCP: TRACE;

THEDFORD       CLOUDY    62  36  37 N8        29.94S
$$

NEZ041-046>049-061>064-073>077-083>087-280100-
SOUTH CENTRAL NEBRASKA

CITY           SKY/WX    TMP DP  RH WIND       PRES   REMARKS
GRAND ISLAND   PTCLDY    42  25  50 S13       30.03F
6HR MIN TEMP:  36; 6HR MAX TEMP:  43; 6HR PCP:  0.01;

AURORA         PTCLDY    41  24  51 SE9       30.05S
HASTINGS       MOCLDY    45  26  47 S10G18    30.00F
6HR MIN TEMP:  37; 6HR MAX TEMP:  45;

HEBRON         MOCLDY    42  22  44 S9        30.08F
HOLDREGE       CLOUDY    51  33  49 S10G17    29.97F
KEARNEY *      CLOUDY    48  30  49 S14G21    29.98F
YORK           MOCLDY    37  27  65 S12       30.06F WCI  30
$$

NEZ011>018-030>034-042>045-280100-
NORTHEAST NEBRASKA

CITY           SKY/WX    TMP DP  RH WIND       PRES   REMARKS
NORFOLK        CLOUDY    34  28  79 SE13      30.06S WCI  25
6HR MIN TEMP:  33; 6HR MAX TEMP:  36; 6HR PCP:  0.02;

ALBION         MOCLDY    37  27  67 SE12      30.03F WCI  29
BLAIR          CLOUDY    37  19  47 S3        30.12F
COLUMBUS *     CLOUDY    36  23  60 SE13      30.10S WCI  27
FREMONT        CLOUDY    37  23  58 SE5       30.13S WCI  33
TEKAMAH        CLOUDY    37  19  48 SE6       30.14S WCI  32
6HR MIN TEMP:  36; 6HR MAX TEMP:  41; 6HR PCP: TRACE;

WAYNE          CLOUDY    34  27  75 SE7       30.09F WCI  28
$$

NEZ050>053-065>068-078-088>093-280100-
SOUTHEAST NEBRASKA

CITY           SKY/WX    TMP DP  RH WIND       PRES   REMARKS
LINCOLN        CLOUDY    38  24  57 S8        30.12F WCI  32
6HR MIN TEMP:  36; 6HR MAX TEMP:  41; 6HR PCP: TRACE;

OMAHA EPPLEY   CLOUDY    38  18  44 S3        30.15S
6HR MIN TEMP:  36; 6HR MAX TEMP:  41;

BEATRICE       CLOUDY    38  23  54 SE5       30.12F WCI  35
FALLS CITY     CLOUDY    39  18  42 W6        30.15F WCI  35
6HR MIN TEMP:  36; 6HR MAX TEMP:  42;

NEBRASKA CITY  CLOUDY    37  15  40 SW3       30.14F
PLATTSMOUTH    CLOUDY    37  13  38 CALM      30.14F
$$

NEZ044-045-051>053-067-280100-
OMAHA AREA

CITY           SKY/WX    TMP DP  RH WIND       PRES   REMARKS
OMAHA EPPLEY   CLOUDY    38  18  44 S3        30.15S
6HR MIN TEMP:  36; 6HR MAX TEMP:  41;

BLAIR          CLOUDY    37  19  47 S3        30.12F
FREMONT        CLOUDY    37  23  58 SE5       30.13S WCI  33
MILLARD        CLOUDY    37  19  46 CALM      30.14F
OFFUTT AFB     CLOUDY    38  15  39 S3        30.14F
PLATTSMOUTH    CLOUDY    37  13  38 CALM      30.14F
WAHOO          CLOUDY    36  24  60 SE6       30.12S WCI  31
$$


USA.gov is the U.S. government's official web portal to all federal, state and local government web resources and services.